Regional Weather Roundup
Issued by NWS

Home | Current Version | Previous Version | Graphics & Text | Print | Product List | Glossary On
Versions: 1 2 3 4 5 6 7 8 9 10 11 12 13 14 15 16 17 18 19 20 21 22 23 24 25 26 27 28
000
ASUS45 KCYS 230610
RWRWY

WYOMING REGIONAL WEATHER ROUNDUP
NATIONAL WEATHER SERVICE CHEYENNE WY
1200 AM MDT SAT SEP 23 2017

NOTE:  "FAIR" INDICATES FEW OR NO CLOUDS BELOW 12,000 FEET
WITH NO SIGNIFICANT WEATHER AND/OR OBSTRUCTIONS TO VISIBILITY.

WYZ001-230700-
YELLOWSTONE NATIONAL PARK

CITY           SKY/WX    TMP DP  RH WIND       PRES   REMARKS
LK YELLOWSTONE NOT AVBL
W YELLOWSTONE  NOT AVBL

$$
WYZ002>013-054>058-071-098>099-230700-
NORTHERN WYOMING

CITY           SKY/WX    TMP DP  RH WIND       PRES   REMARKS
JACKSON        CLOUDY    36  34  92 CALM      30.00S
CODY           LGT RAIN  35  35 100 CALM      30.05S
GREYBULL       LGT RAIN  41  40  96 W7        30.03R
6HR MIN TEMP:  41; 6HR MAX TEMP:  47; 6HR PCP:  0.10;

WORLAND        LGT RAIN  41  41 100 NW5       30.04R
6HR MIN TEMP:  41; 6HR MAX TEMP:  46; 6HR PCP:  0.32;

SHERIDAN       CLOUDY    41  40  96 NW3       30.05F
6HR MIN TEMP:  41; 6HR MAX TEMP:  46; 6HR PCP:  0.07;

BUFFALO        CLOUDY    38  35  89 N3        30.05F
6HR MIN TEMP:  38; 6HR MAX TEMP:  43; 6HR PCP:  0.15;

GILLETTE       CLOUDY    42  35  76 N13       30.02R
6HR MIN TEMP:  42; 6HR MAX TEMP:  49;

HULETT         MOCLDY    39  37  93 NE6       30.03S WCI  35
NEWCASTLE      FAIR      43  41  93 N10       29.97S

$$
WYZ014>020-022>026-101>103-230700-
CENTRAL WYOMING

CITY           SKY/WX    TMP DP  RH WIND       PRES   REMARKS
BIG PINEY      CLOUDY    34  33  96 SE8       30.01F WCI  27
6HR MIN TEMP:  34; 6HR MAX TEMP:  44; 6HR PCP:  0.03;

PINEDALE       CLOUDY    34  32  93 S5        30.01F WCI  30
DUBOIS         CLOUDY    34  32  93 CALM      30.00S
LANDER           N/A    N/A N/A N/A MISG      29.98F
RIVERTON       LGT RAIN  39  39 100 N10       30.01S FOG     WCI  32
6HR MIN TEMP:  39; 6HR MAX TEMP:  44; 6HR PCP:  0.15;

CASPER         CLOUDY    42  38  85 N15       29.98F
6HR MIN TEMP:  42; 6HR MAX TEMP:  49;

DOUGLAS        CLOUDY    44  42  93 N3        30.00R
6HR MIN TEMP:  42; 6HR MAX TEMP:  49; 6HR PCP:  0.22;


$$
WYZ021-027>030-104>119-230700-
SOUTHERN WYOMING

CITY           SKY/WX    TMP DP  RH WIND       PRES   REMARKS
EVANSTON       CLOUDY    36  33  89 N3        29.99F
6HR MIN TEMP:  35; 6HR MAX TEMP:  38;

KEMMERER         N/A     34  32  93 CALM      30.01R
FORT BRIDGER   CLOUDY    36  36 100 SE5       30.03S FOG     WCI  32
ROCK SPRINGS   CLOUDY    35  33  92 CALM      30.00F
6HR MIN TEMP:  35; 6HR MAX TEMP:  44; 6HR PCP:  0.01;

DIXON          RAIN      45  40  83 N6        30.01R
RAWLINS        MOCLDY    43  40  89 W14       29.97R
6HR MIN TEMP:  41; 6HR MAX TEMP:  51; 6HR PCP: TRACE;

SARATOGA       MOCLDY    43  37  81 W7        29.99R
LARAMIE        MOCLDY    42  36  79 SE6       29.98F
6HR MIN TEMP:  42; 6HR MAX TEMP:  50; 6HR PCP:  0.03;

CHEYENNE       FAIR      45  36  70 N7        30.00F
6HR MIN TEMP:  45; 6HR MAX TEMP:  59;

TORRINGTON     FAIR      48  38  68 E3        29.97R
6HR MIN TEMP:  48; 6HR MAX TEMP:  65;

PINE BLUFFS    FAIR      48  39  71 N9        29.99R

$$




USA.gov is the U.S. government's official web portal to all federal, state and local government web resources and services.